Thief River Falls, MN

7:23 PM CDT on August 31, 2016 (GMT -0500)
Thief River Falls Regional

Weather History for KTVF - January, 2014

Change the Weather History Date:

Sunday, January 5, 2014

  Actual Average Record
Temperature  
Mean Temperature -22 °F -  
Max Temperature -18 °F 12 °F 44 °F (2012)
Min Temperature -27 °F 0 °F -34 °F (1973)
Degree Days  
Heating Degree Days 88    
Moisture  
Dew Point -28 °F    
Average Humidity 69    
Maximum Humidity 76    
Minimum Humidity 63    
Precipitation  
Precipitation 0.00 in - - ()
Sea Level Pressure  
Sea Level Pressure 30.32 in    
Wind  
Wind Speed 6 mph (WNW)    
Max Wind Speed 16 mph    
Max Gust Speed 20 mph    
Visibility 9 miles    
Events      
Averages and records for this station are not official NWS values.
T = Trace of Precipitation, MM = Missing Value Source: NWS Daily Summary

Daily Weather History Graph

Daily Weather History Graph

Search for Another Location

Airport or City:

Trip Planner

Search our weather history database for the weather conditions in past years. The results will help you decide how hot, cold, wet, or windy it might be!

Date:

Astronomy

Jan. 05, 2014 Rise Set
Actual Time 8:14 AM CST 4:46 PM CST
Civil Twilight 7:38 AM CST 5:22 PM CST
Nautical Twilight 6:59 AM CST 6:01 PM CST
Astronomical Twilight 6:21 AM CST 6:39 PM CST
Moon 10:32 AM CST (1/5) 10:42 PM CST (1/5)
Length of Visible Light 9h 43m
Length of Day
8h 32m
Waxing Crescent, 25% of the Moon is Illuminated
Jan 5
Waxing Crescent
Jan 7
First Quarter
Jan 15
Full
Jan 23
Last Quarter
Jan 30
New

Hourly Weather History & Observations

Time (CST) Temp. Windchill Dew Point Humidity Pressure Visibility Wind Dir Wind Speed Gust Speed Precip Events Conditions
12:15 AM -18.4 °F - -25.6 °F 70% 30.22 in 10.0 mi Calm Calm - N/A   Unknown
12:35 AM -18.4 °F -31.4 °F -27.4 °F 63% 30.23 in 10.0 mi WSW 4.6 mph - N/A   Unknown
12:55 AM -20.2 °F -30.9 °F - N/A% 30.22 in 10.0 mi SW 3.5 mph - N/A   Unknown
1:15 AM -22.0 °F - - N/A% 30.22 in 10.0 mi Calm Calm - N/A   Unknown
1:35 AM -20.2 °F -30.9 °F -27.4 °F 69% 30.24 in 10.0 mi South 3.5 mph - N/A   Unknown
1:55 AM -22.0 °F - - N/A% 30.24 in 10.0 mi Calm Calm - N/A   Unknown
2:15 AM -22.0 °F -37.7 °F - N/A% 30.24 in 10.0 mi West 5.8 mph - N/A   Unknown
2:35 AM -20.2 °F -33.5 °F -25.6 °F 76% 30.25 in 10.0 mi West 4.6 mph - N/A   Unknown
2:55 AM -20.2 °F -35.5 °F - N/A% 30.25 in 10.0 mi West 5.8 mph - N/A   Unknown
3:15 AM -23.8 °F - - N/A% 30.25 in 10.0 mi Calm Calm - N/A   Unknown
3:35 AM -22.0 °F - -29.2 °F 69% 30.24 in 10.0 mi Calm Calm - N/A   Unknown
3:55 AM -22.0 °F - - N/A% 30.24 in 10.0 mi Calm Calm - N/A   Unknown
4:15 AM -20.2 °F -33.5 °F - N/A% 30.25 in 10.0 mi WNW 4.6 mph - N/A   Unknown
4:35 AM -22.0 °F - -29.2 °F 69% 30.25 in 10.0 mi Calm Calm - N/A   Unknown
4:55 AM -23.8 °F -43.2 °F - N/A% 30.25 in 10.0 mi NW 8.1 mph - N/A   Unknown
5:15 AM -25.6 °F -41.9 °F - N/A% 30.25 in 10.0 mi WNW 5.8 mph - N/A   Unknown
5:35 AM -23.8 °F -37.7 °F - N/A% 30.26 in 10.0 mi WNW 4.6 mph - N/A   Unknown
5:55 AM -23.8 °F -35.0 °F - N/A% 30.27 in 10.0 mi NW 3.5 mph - N/A   Unknown
6:15 AM -23.8 °F -37.7 °F - N/A% 30.27 in 10.0 mi NW 4.6 mph - N/A   Unknown
6:35 AM -23.8 °F -35.0 °F - N/A% 30.28 in 10.0 mi NW 3.5 mph - N/A   Unknown
6:55 AM -23.8 °F -39.8 °F - N/A% 30.29 in 10.0 mi NW 5.8 mph - N/A   Unknown
7:15 AM -25.6 °F - - N/A% 30.31 in 10.0 mi Calm Calm - N/A   Unknown
7:35 AM -27.4 °F -39.2 °F - N/A% 30.31 in 10.0 mi NW 3.5 mph - N/A   Unknown
7:55 AM -25.6 °F -39.8 °F - N/A% 30.32 in 10.0 mi NW 4.6 mph - N/A   Unknown
8:15 AM -25.6 °F - - N/A% 30.33 in 10.0 mi Calm Calm - N/A   Unknown
8:35 AM -25.6 °F - - N/A% 30.33 in 8.0 mi Calm Calm - N/A   Unknown
8:55 AM -25.6 °F - - N/A% 30.34 in 10.0 mi Calm Calm - N/A   Unknown
9:15 AM -25.6 °F - - N/A% 30.34 in 10.0 mi Calm Calm - N/A   Unknown
9:35 AM -25.6 °F -41.9 °F - N/A% 30.35 in 10.0 mi NW 5.8 mph - N/A   Unknown
9:55 AM -25.6 °F -43.8 °F - N/A% 30.35 in 7.0 mi NW 6.9 mph - N/A   Unknown
10:15 AM -23.8 °F -39.8 °F - N/A% 30.37 in 8.0 mi NW 5.8 mph - N/A   Unknown
10:35 AM -23.8 °F -43.2 °F -29.2 °F 76% 30.38 in 10.0 mi NW 8.1 mph - N/A   Unknown
10:55 AM -22.0 °F -42.3 °F - N/A% 30.37 in 10.0 mi NW 9.2 mph - N/A   Unknown
11:15 AM -20.2 °F -43.4 °F -29.2 °F 63% 30.38 in 9.0 mi NW 12.7 mph - N/A   Unknown
11:35 AM -20.2 °F -43.4 °F - N/A% 30.37 in 10.0 mi WNW 12.7 mph - N/A   Unknown
11:55 AM -20.2 °F -44.4 °F - N/A% 30.37 in 10.0 mi NW 13.8 mph - N/A   Unknown
12:15 PM -20.2 °F -45.2 °F - N/A% 30.38 in 10.0 mi NW 15.0 mph - N/A   Unknown
12:35 PM -20.2 °F -46.0 °F -27.4 °F 69% 30.38 in 5.0 mi NW 16.1 mph - N/A   Unknown
12:55 PM -20.2 °F -44.4 °F - N/A% 30.36 in 7.0 mi NW 13.8 mph - N/A   Unknown
1:15 PM -20.2 °F -44.4 °F - N/A% 30.36 in 10.0 mi WNW 13.8 mph - N/A   Unknown
1:35 PM -20.2 °F -46.0 °F - N/A% 30.36 in 9.0 mi WNW 16.1 mph - N/A   Unknown
1:55 PM -20.2 °F -43.4 °F - N/A% 30.36 in 5.0 mi WNW 12.7 mph 18.4 mph N/A   Unknown
2:15 PM -20.2 °F -46.0 °F - N/A% 30.36 in 9.0 mi NW 16.1 mph - N/A   Unknown
2:35 PM -20.2 °F -44.4 °F - N/A% 30.36 in 7.0 mi WNW 13.8 mph 19.6 mph N/A   Unknown
2:55 PM -20.2 °F -45.2 °F - N/A% 30.37 in 5.0 mi WNW 15.0 mph - N/A   Unknown
3:15 PM -20.2 °F -45.2 °F - N/A% 30.38 in 10.0 mi NW 15.0 mph - N/A   Unknown
3:35 PM -22.0 °F -44.7 °F - N/A% 30.37 in 10.0 mi WNW 11.5 mph - N/A   Unknown
3:55 PM -20.2 °F -41.3 °F - N/A% 30.37 in 9.0 mi WNW 10.4 mph - N/A   Unknown
4:15 PM -22.0 °F -43.6 °F - N/A% 30.37 in 10.0 mi WNW 10.4 mph - N/A   Unknown
4:35 PM -22.0 °F -42.3 °F - N/A% 30.37 in 7.0 mi WNW 9.2 mph - N/A   Unknown
4:55 PM -22.0 °F -41.0 °F - N/A% 30.38 in 10.0 mi WNW 8.1 mph - N/A   Unknown
5:15 PM -22.0 °F -43.6 °F - N/A% 30.38 in 7.0 mi WNW 10.4 mph - N/A   Unknown
5:35 PM -22.0 °F -43.6 °F - N/A% 30.38 in 10.0 mi WNW 10.4 mph - N/A   Unknown
5:55 PM -23.8 °F -48.0 °F - N/A% 30.38 in 10.0 mi WNW 12.7 mph - N/A   Unknown
6:15 PM -23.8 °F -45.8 °F - N/A% 30.37 in 10.0 mi WNW 10.4 mph - N/A   Unknown
6:35 PM -23.8 °F -45.8 °F - N/A% 30.37 in 10.0 mi WNW 10.4 mph - N/A   Unknown
6:55 PM -23.8 °F -45.8 °F - N/A% 30.37 in 10.0 mi WNW 10.4 mph - N/A   Unknown
7:15 PM -23.8 °F -46.9 °F - N/A% 30.37 in 10.0 mi WNW 11.5 mph - N/A   Unknown
7:35 PM -23.8 °F -44.5 °F - N/A% 30.36 in 10.0 mi WNW 9.2 mph - N/A   Unknown
7:55 PM -23.8 °F -45.8 °F - N/A% 30.36 in 10.0 mi WNW 10.4 mph - N/A   Unknown
8:15 PM -23.8 °F -44.5 °F - N/A% 30.36 in 10.0 mi West 9.2 mph - N/A   Unknown
8:35 PM -25.6 °F -45.4 °F - N/A% 30.35 in 6.0 mi West 8.1 mph - N/A   Unknown
8:55 PM -25.6 °F -46.8 °F - N/A% 30.34 in 6.0 mi WNW 9.2 mph - N/A   Unknown
9:15 PM -25.6 °F -48.0 °F - N/A% 30.33 in 7.0 mi WNW 10.4 mph - N/A   Unknown
9:35 PM -23.8 °F -46.9 °F - N/A% 30.33 in 6.0 mi WNW 11.5 mph - N/A   Unknown
10:15 PM -23.8 °F -44.5 °F - N/A% 30.32 in 6.0 mi WNW 9.2 mph - N/A   Unknown
10:35 PM -23.8 °F -44.5 °F - N/A% 30.32 in 5.0 mi West 9.2 mph - N/A   Unknown
10:55 PM -23.8 °F -44.5 °F - N/A% 30.31 in 5.0 mi WNW 9.2 mph - N/A   Unknown
11:15 PM -23.8 °F -45.8 °F - N/A% 30.31 in 5.0 mi WNW 10.4 mph - N/A   Unknown
11:35 PM -23.8 °F -44.5 °F - N/A% 30.31 in 4.0 mi WNW 9.2 mph - N/A   Unknown
11:55 PM -23.8 °F -43.2 °F - N/A% 30.29 in 5.0 mi WNW 8.1 mph - N/A   Unknown